Погода в Левинцах

Украина / Черновицкая область     48°24′28″N   26°36′29″E
В апреле 2022 года жителям России запретили посещать сайт meteo.paraplan.net по решению Генеральной прокуратуры. Аудитория сайта уменьшилась в 10 раз. Владельцы сайта не видят смысла в поддержке погодного сервера в таких условиях. Сайт будет закрыт в октябре.
темп.,
°C
ветер,
м/с
пор.,
м/с
влажн.,
%
обл.,
%
осадки,
мм/ч
давл.,
гПа
погр.,
м
4 октября, вт
вт400:00+8зсз61480100 0.9 1011784
03:00+8зсз81484100 0.9 1012777
06:00+8зсз8148397 0.0 1013788
09:00+9зсз81273100 0.0 10151100
12:00+10зсз61178100 0.2 10171018
15:00+12зсз9116394 0.4 10181336
18:00+11зсз71272100 0.1 10201045
21:00+10зсз61379100 0.1 1022668
5 октября, ср
ср500:00+10зсз61273100 0.0 1023551
03:00+10зсз7137066 0.0 1024569
06:00+10зсз5106696 0.0 1025455
09:00+10з4966100 0.0 1027422
12:00+14з4552100 0.0 1027774
15:00+15зсз3445100 0.0 10261077
18:00+15зюз1150100 0.0 102511
21:00+12ююв225589 0.0 102616
6 октября, чт
чт600:00+11ю3358100 0.0 102630
03:00+10ю2261100 0.0 102613
06:00+10ююз1164100 0.0 102510
09:00+11ююз1161100 0.0 102650
12:00+16зюз2246100 0.0 1026382
15:00+19зсз123781 0.0 1025647
18:00+17сз2248100 0.0 102521
21:00+14зсз225589 0.0 102711
7 октября, пт
пт700:00+13зсз2372100 0.0 102936
03:00+12зсз358393 0.0 1030108
06:00+12сз3885100 0.0 1030289
09:00+13ссз4786100 0.0 1031344
12:00+17с346186 0.0 1030908
15:00+18ссв334843 0.0 10291385
18:00+16св225252 0.0 102723
21:00+13в225670 0.0 102717
8 октября, сб
сб800:00+11вюв22635 0.0 102713
03:00+10вюв22726 0.0 102615
06:00+9вюв227847 0.0 102521
09:00+11юв267553 0.0 1024180
12:00+16ююв455446 0.0 1022651
15:00+19ююв334650 0.0 1020893
18:00+17юв115578 0.0 102011
21:00+14юв0061100 0.0 102111